Time,TemperatureF,DewpointF,PressureIn,WindDirection,WindDirectionDegrees,WindSpeedMPH,WindSpeedGustMPH,Humidity,HourlyPrecipIn,Conditions,Clouds,dailyrainin,SoftwareType,DateUTC
2013-10-14 00:02:00,69.9,68.0,30.13,NE,54,0.0,0.0,92,0.00,,,0.00,weatherlink.com 1.10,2013-10-14 05:02:00,
2013-10-14 00:17:00,69.5,67.0,30.13,NE,53,0.0,0.0,92,0.00,,,0.00,weatherlink.com 1.10,2013-10-14 05:17:00,
2013-10-14 00:32:00,69.2,67.0,30.13,NE,54,0.0,0.0,93,0.00,,,0.00,weatherlink.com 1.10,2013-10-14 05:32:00,
2013-10-14 00:47:00,68.9,67.0,30.12,NE,53,0.0,1.0,93,0.00,,,0.00,weatherlink.com 1.10,2013-10-14 05:47:00,
2013-10-14 01:02:00,68.5,67.0,30.12,NE,51,0.0,1.0,93,0.00,,,0.00,weatherlink.com 1.10,2013-10-14 06:02:00,
2013-10-14 01:17:00,68.4,67.0,30.12,NE,46,0.0,1.0,94,0.00,,,0.00,weatherlink.com 1.10,2013-10-14 06:17:00,
2013-10-14 01:32:00,68.3,67.0,30.12,NE,53,1.0,1.0,94,0.00,,,0.00,weatherlink.com 1.10,2013-10-14 06:32:00,
2013-10-14 01:47:00,68.1,66.0,30.12,NNE,32,0.0,1.0,94,0.00,,,0.00,weatherlink.com 1.10,2013-10-14 06:47:00,
2013-10-14 02:02:00,67.9,66.0,30.12,NNW,331,0.0,1.0,94,0.00,,,0.00,weatherlink.com 1.10,2013-10-14 07:02:00,
2013-10-14 02:17:00,67.6,66.0,30.12,NNE,31,0.0,1.0,94,0.00,,,0.00,weatherlink.com 1.10,2013-10-14 07:17:00,
2013-10-14 02:32:00,67.4,66.0,30.12,NNE,31,0.0,1.0,94,0.00,,,0.00,weatherlink.com 1.10,2013-10-14 07:32:00,
2013-10-14 02:47:00,67.2,66.0,30.12,NE,53,1.0,1.0,95,0.00,,,0.00,weatherlink.com 1.10,2013-10-14 07:47:00,
2013-10-14 03:02:00,67.2,66.0,30.12,North,360,0.0,1.0,94,0.00,,,0.00,weatherlink.com 1.10,2013-10-14 08:02:00,
2013-10-14 03:17:00,67.1,65.0,30.12,North,1,0.0,1.0,94,0.00,,,0.00,weatherlink.com 1.10,2013-10-14 08:17:00,
2013-10-14 03:32:00,66.9,65.0,30.12,North,349,0.0,1.0,94,0.00,,,0.00,weatherlink.com 1.10,2013-10-14 08:32:00,
2013-10-14 03:47:00,66.6,65.0,30.11,North,349,0.0,0.0,94,0.00,,,0.00,weatherlink.com 1.10,2013-10-14 08:47:00,
2013-10-14 04:03:00,66.3,65.0,30.12,North,349,0.0,0.0,95,0.00,,,0.00,weatherlink.com 1.10,2013-10-14 09:03:00,
2013-10-14 04:17:00,66.1,65.0,30.12,NNW,348,0.0,0.0,95,0.00,,,0.00,weatherlink.com 1.10,2013-10-14 09:17:00,
2013-10-14 04:32:00,66.0,65.0,30.12,North,349,0.0,1.0,95,0.00,,,0.00,weatherlink.com 1.10,2013-10-14 09:32:00,
2013-10-14 04:47:00,66.0,65.0,30.13,North,349,0.0,1.0,95,0.00,,,0.00,weatherlink.com 1.10,2013-10-14 09:47:00,
2013-10-14 05:02:00,65.9,65.0,30.12,North,350,0.0,1.0,95,0.00,,,0.00,weatherlink.com 1.10,2013-10-14 10:02:00,
2013-10-14 05:17:00,65.7,64.0,30.12,North,350,0.0,0.0,95,0.00,,,0.00,weatherlink.com 1.10,2013-10-14 10:17:00,
2013-10-14 05:32:00,65.6,64.0,30.13,North,350,0.0,0.0,95,0.00,,,0.00,weatherlink.com 1.10,2013-10-14 10:32:00,
2013-10-14 05:47:00,65.4,64.0,30.12,NE,43,0.0,1.0,95,0.00,,,0.00,weatherlink.com 1.10,2013-10-14 10:47:00,
2013-10-14 06:02:00,65.3,64.0,30.12,NE,43,0.0,0.0,96,0.00,,,0.00,weatherlink.com 1.10,2013-10-14 11:02:00,
2013-10-14 06:17:00,65.2,64.0,30.13,NE,43,0.0,1.0,95,0.00,,,0.00,weatherlink.com 1.10,2013-10-14 11:17:00,
2013-10-14 06:32:00,65.1,64.0,30.13,NE,43,0.0,1.0,95,0.00,,,0.00,weatherlink.com 1.10,2013-10-14 11:32:00,
2013-10-14 06:47:00,64.9,64.0,30.13,NNE,25,0.0,0.0,95,0.00,,,0.00,weatherlink.com 1.10,2013-10-14 11:47:00,
2013-10-14 07:03:00,64.6,63.0,30.13,NNE,26,0.0,0.0,95,0.00,,,0.00,weatherlink.com 1.10,2013-10-14 12:03:00,
2013-10-14 07:18:00,64.5,63.0,30.13,NNE,22,0.0,1.0,96,0.00,,,0.00,weatherlink.com 1.10,2013-10-14 12:18:00,
2013-10-14 07:33:00,64.5,63.0,30.13,NE,36,0.0,1.0,95,0.00,,,0.00,weatherlink.com 1.10,2013-10-14 12:33:00,
2013-10-14 07:48:00,64.7,64.0,30.13,NNW,337,0.0,1.0,96,0.00,,,0.00,weatherlink.com 1.10,2013-10-14 12:48:00,
2013-10-14 08:03:00,65.4,64.0,30.13,NNE,15,0.0,1.0,95,0.00,,,0.00,weatherlink.com 1.10,2013-10-14 13:03:00,
2013-10-14 08:18:00,67.3,65.0,30.13,NNE,22,1.0,2.0,92,0.00,,,0.00,weatherlink.com 1.10,2013-10-14 13:18:00,
2013-10-14 08:33:00,68.2,65.0,30.13,NE,36,0.0,2.0,90,0.00,,,0.00,weatherlink.com 1.10,2013-10-14 13:33:00,
2013-10-14 08:48:00,68.7,66.0,30.14,ENE,63,1.0,2.0,90,0.00,,,0.00,weatherlink.com 1.10,2013-10-14 13:48:00,
2013-10-14 09:03:00,69.8,66.0,30.14,NE,53,1.0,2.0,87,0.00,,,0.00,weatherlink.com 1.10,2013-10-14 14:03:00,
2013-10-14 09:18:00,71.0,67.0,30.14,East,91,3.0,4.0,86,0.00,,,0.00,weatherlink.com 1.10,2013-10-14 14:18:00,
2013-10-14 09:33:00,72.4,67.0,30.14,ENE,62,2.0,3.0,83,0.00,,,0.00,weatherlink.com 1.10,2013-10-14 14:33:00,
2013-10-14 09:48:00,72.7,67.0,30.14,ESE,112,0.0,4.0,83,0.00,,,0.00,weatherlink.com 1.10,2013-10-14 14:48:00,
2013-10-14 10:03:00,74.2,68.0,30.14,ESE,114,0.0,3.0,81,0.00,,,0.00,weatherlink.com 1.10,2013-10-14 15:03:00,
2013-10-14 10:18:00,76.2,69.0,30.14,NNW,334,1.0,3.0,77,0.00,,,0.00,weatherlink.com 1.10,2013-10-14 15:18:00,
2013-10-14 10:33:00,77.2,69.0,30.14,ESE,108,0.0,3.0,75,0.00,,,0.00,weatherlink.com 1.10,2013-10-14 15:33:00,
2013-10-14 10:48:00,77.9,69.0,30.13,ESE,118,0.0,2.0,73,0.00,,,0.00,weatherlink.com 1.10,2013-10-14 15:48:00,
2013-10-14 11:03:00,78.3,69.0,30.13,ENE,57,1.0,3.0,72,0.00,,,0.00,weatherlink.com 1.10,2013-10-14 16:03:00,
2013-10-14 11:19:00,77.9,69.0,30.13,SE,126,0.0,5.0,73,0.00,,,0.00,weatherlink.com 1.10,2013-10-14 16:19:00,
2013-10-14 11:33:00,79.2,68.0,30.12,SE,140,3.0,5.0,69,0.00,,,0.00,weatherlink.com 1.10,2013-10-14 16:33:00,
2013-10-14 11:48:00,79.2,68.0,30.12,SSE,148,0.0,3.0,68,0.00,,,0.00,weatherlink.com 1.10,2013-10-14 16:48:00,
2013-10-14 12:03:00,79.1,67.0,30.11,ENE,62,0.0,3.0,67,0.00,,,0.00,weatherlink.com 1.10,2013-10-14 17:03:00,
2013-10-14 12:18:00,79.9,68.0,30.11,NE,56,0.0,2.0,66,0.00,,,0.00,weatherlink.com 1.10,2013-10-14 17:18:00,
2013-10-14 12:33:00,80.1,64.0,30.10,ENE,57,2.0,3.0,59,0.00,,,0.00,weatherlink.com 1.10,2013-10-14 17:33:00,
2013-10-14 12:49:00,80.7,65.0,30.09,ENE,59,0.0,3.0,60,0.00,,,0.00,weatherlink.com 1.10,2013-10-14 17:49:00,
2013-10-14 13:04:00,80.3,66.0,30.08,SSE,158,0.0,2.0,61,0.00,,,0.00,weatherlink.com 1.10,2013-10-14 18:04:00,
2013-10-14 13:19:00,81.2,65.0,30.08,SE,131,0.0,5.0,58,0.00,,,0.00,weatherlink.com 1.10,2013-10-14 18:19:00,
2013-10-14 13:34:00,81.3,65.0,30.07,West,280,0.0,2.0,58,0.00,,,0.00,weatherlink.com 1.10,2013-10-14 18:34:00,
2013-10-14 13:49:00,82.0,65.0,30.06,NE,44,1.0,3.0,57,0.00,,,0.00,weatherlink.com 1.10,2013-10-14 18:49:00,
2013-10-14 14:04:00,82.2,64.0,30.06,NNW,333,0.0,3.0,55,0.00,,,0.00,weatherlink.com 1.10,2013-10-14 19:04:00,
2013-10-14 14:19:00,81.5,64.0,30.05,North,6,2.0,6.0,55,0.00,,,0.00,weatherlink.com 1.10,2013-10-14 19:19:00,
2013-10-14 14:34:00,81.1,65.0,30.05,NE,44,0.0,4.0,59,0.00,,,0.00,weatherlink.com 1.10,2013-10-14 19:34:00,
2013-10-14 14:49:00,82.1,65.0,30.04,NE,43,1.0,2.0,56,0.00,,,0.00,weatherlink.com 1.10,2013-10-14 19:49:00,
2013-10-14 15:04:00,83.6,65.0,30.04,NE,54,1.0,2.0,54,0.00,,,0.00,weatherlink.com 1.10,2013-10-14 20:04:00,
2013-10-14 15:19:00,82.9,66.0,30.04,ENE,75,0.0,1.0,56,0.00,,,0.00,weatherlink.com 1.10,2013-10-14 20:19:00,
2013-10-14 15:34:00,81.9,65.0,30.03,North,4,0.0,3.0,56,0.00,,,0.00,weatherlink.com 1.10,2013-10-14 20:34:00,
2013-10-14 15:49:00,82.7,65.0,30.03,ENE,61,1.0,3.0,56,0.00,,,0.00,weatherlink.com 1.10,2013-10-14 20:49:00,
2013-10-14 16:04:00,82.9,65.0,30.02,NNW,342,1.0,2.0,55,0.00,,,0.00,weatherlink.com 1.10,2013-10-14 21:04:00,
2013-10-14 16:19:00,82.6,65.0,30.03,North,6,1.0,1.0,55,0.00,,,0.00,weatherlink.com 1.10,2013-10-14 21:19:00,
2013-10-14 16:50:00,81.1,66.0,30.03,ENE,72,0.0,1.0,61,0.00,,,0.00,weatherlink.com 1.10,2013-10-14 21:50:00,
2013-10-14 17:04:00,81.0,66.0,30.03,NE,56,0.0,1.0,61,0.00,,,0.00,weatherlink.com 1.10,2013-10-14 22:04:00,
2013-10-14 17:19:00,81.1,66.0,30.04,NE,56,0.0,1.0,60,0.00,,,0.00,weatherlink.com 1.10,2013-10-14 22:19:00,
2013-10-14 17:34:00,80.3,66.0,30.04,NE,56,0.0,0.0,62,0.00,,,0.00,weatherlink.com 1.10,2013-10-14 22:34:00,
2013-10-14 17:49:00,79.1,66.0,30.04,NE,56,0.0,1.0,65,0.00,,,0.00,weatherlink.com 1.10,2013-10-14 22:49:00,
2013-10-14 18:04:00,77.5,66.0,30.04,NE,56,0.0,0.0,68,0.00,,,0.00,weatherlink.com 1.10,2013-10-14 23:04:00,
2013-10-14 18:19:00,75.9,66.0,30.04,NE,55,0.0,0.0,72,0.00,,,0.00,weatherlink.com 1.10,2013-10-14 23:19:00,
2013-10-14 18:34:00,74.6,65.0,30.04,NE,55,0.0,0.0,73,0.00,,,0.00,weatherlink.com 1.10,2013-10-14 23:34:00,
2013-10-14 18:49:00,73.6,65.0,30.04,NE,56,0.0,0.0,75,0.00,,,0.00,weatherlink.com 1.10,2013-10-14 23:49:00,
2013-10-14 19:04:00,72.8,66.0,30.04,NE,56,0.0,0.0,78,0.00,,,0.00,weatherlink.com 1.10,2013-10-15 00:04:00,
2013-10-14 19:19:00,71.8,65.0,30.04,NE,56,0.0,0.0,79,0.00,,,0.00,weatherlink.com 1.10,2013-10-15 00:19:00,
2013-10-14 19:34:00,71.3,65.0,30.04,NE,55,0.0,0.0,80,0.00,,,0.00,weatherlink.com 1.10,2013-10-15 00:34:00,
2013-10-14 19:49:00,70.9,65.0,30.04,NE,55,0.0,0.0,81,0.00,,,0.00,weatherlink.com 1.10,2013-10-15 00:49:00,
2013-10-14 20:04:00,70.3,65.0,30.04,NE,56,0.0,0.0,82,0.00,,,0.00,weatherlink.com 1.10,2013-10-15 01:04:00,
2013-10-14 20:19:00,69.9,65.0,30.04,NE,55,0.0,0.0,83,0.00,,,0.00,weatherlink.com 1.10,2013-10-15 01:19:00,
2013-10-14 20:34:00,69.9,65.0,30.05,NE,55,0.0,0.0,83,0.00,,,0.00,weatherlink.com 1.10,2013-10-15 01:34:00,
2013-10-14 20:49:00,69.5,65.0,30.04,NE,56,0.0,0.0,84,0.00,,,0.00,weatherlink.com 1.10,2013-10-15 01:49:00,
2013-10-14 21:04:00,69.1,64.0,30.05,NE,56,0.0,0.0,84,0.00,,,0.00,weatherlink.com 1.10,2013-10-15 02:04:00,
2013-10-14 21:19:00,69.0,64.0,30.05,NE,55,0.0,0.0,85,0.00,,,0.00,weatherlink.com 1.10,2013-10-15 02:19:00,
2013-10-14 21:34:00,69.0,64.0,30.05,NE,55,0.0,0.0,85,0.00,,,0.00,weatherlink.com 1.10,2013-10-15 02:34:00,
2013-10-14 21:49:00,68.7,64.0,30.06,NE,56,0.0,0.0,85,0.00,,,0.00,weatherlink.com 1.10,2013-10-15 02:49:00,
2013-10-14 22:04:00,68.5,64.0,30.06,SSE,159,0.0,2.0,86,0.00,,,0.00,weatherlink.com 1.10,2013-10-15 03:04:00,
2013-10-14 22:19:00,68.3,64.0,30.06,SSE,159,0.0,0.0,86,0.00,,,0.00,weatherlink.com 1.10,2013-10-15 03:19:00,
2013-10-14 22:34:00,68.0,64.0,30.06,SSE,159,0.0,0.0,87,0.00,,,0.00,weatherlink.com 1.10,2013-10-15 03:34:00,
2013-10-14 22:49:00,67.6,64.0,30.06,SSE,159,0.0,0.0,88,0.00,,,0.00,weatherlink.com 1.10,2013-10-15 03:49:00,
2013-10-14 23:04:00,67.0,64.0,30.07,SSE,159,0.0,0.0,89,0.00,,,0.00,weatherlink.com 1.10,2013-10-15 04:04:00,
2013-10-14 23:19:00,66.5,64.0,30.06,SSE,159,0.0,0.0,90,0.00,,,0.00,weatherlink.com 1.10,2013-10-15 04:19:00,
2013-10-14 23:34:00,66.2,63.0,30.06,SSE,159,0.0,0.0,90,0.00,,,0.00,weatherlink.com 1.10,2013-10-15 04:34:00,
2013-10-14 23:49:00,65.8,63.0,30.05,SSE,159,0.0,0.0,91,0.00,,,0.00,weatherlink.com 1.10,2013-10-15 04:49:00,